| time (UTC) | temp C | wind direction | speed KPH | gust KPH | rain 1hr cm | rain 24hr cm | rain mn cm | humidity % | barometer mb |
| 20260508002445 | 12 | 206 | 1.6 | 4.8 | 0.00 | 0.33 | 0.20 | 87 | 1009.5 |
| 20260508001943 | 12 | 0 | 1.6 | 4.8 | 0.00 | 0.33 | 0.20 | 87 | 1009.5 |
| 20260508001439 | 12 | 236 | 1.6 | 3.2 | 0.00 | 0.33 | 0.20 | 89 | 1009.4 |
| 20260508000940 | 12 | 0 | 1.6 | 6.4 | 0.00 | 0.33 | 0.20 | 88 | 1009.3 |
| 20260508000441 | 12 | 199 | 1.6 | 6.4 | 0.00 | 0.33 | 0.20 | 89 | 1009.2 |
| 20260508000159 | 12 | 0 | 1.6 | 6.4 | 0.00 | 0.33 | 0.20 | 88 | 1009.2 |
| 20260507235439 | 13 | 149 | 1.6 | 6.4 | 0.00 | 0.33 | 0.20 | 87 | 1009.0 |
| 20260507234938 | 13 | 126 | 1.6 | 4.8 | 0.00 | 0.33 | 0.20 | 84 | 1008.9 |
| 20260507234438 | 13 | 41 | 0.0 | 4.8 | 0.00 | 0.33 | 0.20 | 84 | 1008.8 |
| 20260507233938 | 13 | 0 | 1.6 | 6.4 | 0.00 | 0.33 | 0.20 | 82 | 1008.7 |
| 20260507233438 | 13 | 0 | 1.6 | 6.4 | 0.00 | 0.33 | 0.20 | 81 | 1008.7 |
| 20260507232938 | 13 | 160 | 3.2 | 6.4 | 0.00 | 0.33 | 0.20 | 81 | 1008.6 |
| 20260507232704 | 13 | 118 | 3.2 | 4.8 | 0.00 | 0.33 | 0.20 | 82 | 1008.6 |
| 20260507231938 | 13 | 94 | 1.6 | 9.7 | 0.00 | 0.33 | 0.20 | 81 | 1008.5 |
| 20260507231438 | 13 | 0 | 3.2 | 9.7 | 0.00 | 0.33 | 0.20 | 83 | 1008.5 |
| 20260507230938 | 13 | 113 | 3.2 | 8.0 | 0.00 | 0.33 | 0.20 | 82 | 1008.4 |
| 20260507230439 | 13 | 103 | 1.6 | 6.4 | 0.00 | 0.33 | 0.20 | 81 | 1008.4 |
| 20260507225939 | 13 | 0 | 3.2 | 8.0 | 0.00 | 0.33 | 0.20 | 82 | 1008.3 |
| 20260507225438 | 13 | 136 | 4.8 | 8.0 | 0.00 | 0.33 | 0.20 | 84 | 1008.3 |
| 20260507224935 | 13 | 129 | 3.2 | 8.0 | 0.00 | 0.33 | 0.20 | 84 | 1008.3 |
| 20260507224433 | 13 | 276 | 1.6 | 8.0 | 0.00 | 0.33 | 0.20 | 83 | 1008.2 |
| 20260507223933 | 13 | 89 | 1.6 | 4.8 | 0.00 | 0.33 | 0.20 | 83 | 1008.2 |
| 20260507223433 | 13 | 50 | 3.2 | 9.7 | 0.00 | 0.33 | 0.20 | 83 | 1008.1 |
| 20260507222933 | 13 | 357 | 3.2 | 9.7 | 0.00 | 0.33 | 0.20 | 83 | 1008.1 |
| 20260507222432 | 13 | 74 | 3.2 | 11.3 | 0.00 | 0.33 | 0.20 | 83 | 1007.9 |
| 20260507221934 | 13 | 89 | 4.8 | 11.3 | 0.00 | 0.33 | 0.20 | 83 | 1008.0 |
| 20260507221434 | 13 | 133 | 4.8 | 11.3 | 0.00 | 0.33 | 0.20 | 82 | 1008.0 |
| 20260507220933 | 13 | 106 | 4.8 | 11.3 | 0.00 | 0.33 | 0.20 | 84 | 1007.8 |
| 20260507220433 | 13 | 17 | 4.8 | 9.7 | 0.00 | 0.33 | 0.20 | 84 | 1007.9 |
| 20260507215933 | 13 | 68 | 6.4 | 14.5 | 0.00 | 0.33 | 0.20 | 84 | 1007.9 |
| 20260507215434 | 14 | 94 | 8.0 | 16.1 | 0.00 | 0.33 | 0.20 | 82 | 1007.8 |
| 20260507214929 | 15 | 11 | 6.4 | 16.1 | 0.00 | 0.33 | 0.20 | 79 | 1007.7 |
| 20260507214430 | 15 | 74 | 4.8 | 9.7 | 0.00 | 0.33 | 0.20 | 77 | 1007.6 |
| 20260507213930 | 16 | 77 | 4.8 | 11.3 | 0.00 | 0.33 | 0.20 | 76 | 1007.7 |
| 20260507213430 | 15 | 169 | 3.2 | 11.3 | 0.00 | 0.33 | 0.20 | 75 | 1007.6 |
| 20260507213152 | 15 | 140 | 3.2 | 9.7 | 0.00 | 0.33 | 0.20 | 77 | 1007.6 |
| 20260507212655 | 15 | 210 | 4.8 | 9.7 | 0.00 | 0.33 | 0.20 | 78 | 1007.6 |
| 20260507212153 | 16 | 170 | 4.8 | 9.7 | 0.00 | 0.33 | 0.20 | 78 | 1007.7 |
| 20260507211430 | 17 | 9 | 4.8 | 11.3 | 0.00 | 0.33 | 0.20 | 75 | 1007.7 |
| 20260507210930 | 16 | 291 | 4.8 | 11.3 | 0.00 | 0.33 | 0.20 | 71 | 1007.5 |
| 20260507210430 | 16 | 158 | 4.8 | 11.3 | 0.00 | 0.33 | 0.20 | 70 | 1007.5 |
| 20260507205930 | 16 | 176 | 3.2 | 11.3 | 0.00 | 0.33 | 0.20 | 69 | 1007.5 |
| 20260507205430 | 16 | 0 | 4.8 | 19.3 | 0.00 | 0.33 | 0.20 | 75 | 1007.4 |
| 20260507204930 | 16 | 131 | 3.2 | 19.3 | 0.00 | 0.33 | 0.20 | 71 | 1007.3 |
| 20260507204430 | 15 | 0 | 1.6 | 6.4 | 0.00 | 0.33 | 0.20 | 70 | 1007.4 |
| 20260507203930 | 15 | 211 | 1.6 | 6.4 | 0.00 | 0.33 | 0.20 | 72 | 1007.7 |
| 20260507203430 | 15 | 54 | 3.2 | 9.7 | 0.00 | 0.33 | 0.20 | 70 | 1007.7 |
| 20260507202930 | 15 | 221 | 4.8 | 12.9 | 0.00 | 0.33 | 0.20 | 74 | 1007.7 |
| 20260507202430 | 15 | 293 | 4.8 | 12.9 | 0.00 | 0.33 | 0.20 | 72 | 1007.9 |
| 20260507201929 | 15 | 330 | 4.8 | 11.3 | 0.00 | 0.33 | 0.20 | 72 | 1007.9 |
| 20260507201434 | 15 | 274 | 6.4 | 14.5 | 0.00 | 0.33 | 0.20 | 72 | 1007.8 |
| 20260507200934 | 15 | 300 | 6.4 | 14.5 | 0.00 | 0.33 | 0.20 | 72 | 1007.9 |
| 20260507200434 | 15 | 174 | 4.8 | 12.9 | 0.00 | 0.33 | 0.20 | 75 | 1007.7 |
| 20260507200157 | 14 | 174 | 3.2 | 9.7 | 0.00 | 0.33 | 0.20 | 77 | 1007.9 |
| 20260507195434 | 14 | 197 | 3.2 | 11.3 | 0.00 | 0.33 | 0.20 | 78 | 1008.2 |
| 20260507195200 | 15 | 108 | 4.8 | 11.3 | 0.00 | 0.33 | 0.20 | 79 | 1008.4 |
| 20260507194434 | 15 | 335 | 3.2 | 11.3 | 0.00 | 0.33 | 0.20 | 78 | 1008.3 |
| 20260507194154 | 15 | 166 | 3.2 | 11.3 | 0.00 | 0.33 | 0.20 | 80 | 1008.1 |
| 20260507193429 | 14 | 0 | 3.2 | 11.3 | 0.00 | 0.33 | 0.20 | 82 | 1008.4 |
| 20260507192928 | 14 | 264 | 3.2 | 11.3 | 0.00 | 0.33 | 0.20 | 81 | 1008.5 |
| 20260507192425 | 14 | 147 | 1.6 | 9.7 | 0.05 | 0.33 | 0.20 | 80 | 1008.4 |
| 20260507191925 | 13 | 331 | 1.6 | 6.4 | 0.05 | 0.33 | 0.20 | 81 | 1008.5 |
| 20260507191643 | 13 | 11 | 1.6 | 6.4 | 0.05 | 0.33 | 0.20 | 83 | 1008.5 |
| 20260507190919 | 13 | 0 | 3.2 | 9.7 | 0.05 | 0.33 | 0.20 | 82 | 1008.8 |
| 20260507190418 | 13 | 213 | 3.2 | 9.7 | 0.05 | 0.33 | 0.20 | 85 | 1008.8 |
| 20260507185918 | 13 | 141 | 3.2 | 9.7 | 0.05 | 0.33 | 0.20 | 83 | 1008.7 |
| 20260507185418 | 12 | 157 | 3.2 | 9.7 | 0.05 | 0.33 | 0.20 | 87 | 1008.7 |
| 20260507184918 | 12 | 9 | 3.2 | 6.4 | 0.05 | 0.33 | 0.20 | 83 | 1008.8 |
| 20260507184650 | 12 | 14 | 3.2 | 8.0 | 0.05 | 0.33 | 0.20 | 86 | 1008.7 |
| 20260507184143 | 12 | 1 | 3.2 | 8.0 | 0.05 | 0.33 | 0.20 | 85 | 1008.8 |
| 20260507183643 | 12 | 89 | 1.6 | 6.4 | 0.05 | 0.30 | 0.20 | 85 | 1008.9 |
| 20260507182918 | 12 | 0 | 1.6 | 4.8 | 0.05 | 0.30 | 0.20 | 87 | 1009.0 |
| 20260507182639 | 12 | 326 | 1.6 | 6.4 | 0.00 | 0.28 | 0.18 | 87 | 1009.2 |
| 20260507181919 | 11 | 4 | 1.6 | 6.4 | 0.00 | 0.28 | 0.18 | 88 | 1009.2 |
| 20260507181418 | 11 | 314 | 3.2 | 8.0 | 0.00 | 0.28 | 0.18 | 88 | 1009.3 |
| 20260507180915 | 11 | 313 | 3.2 | 8.0 | 0.00 | 0.28 | 0.18 | 90 | 1009.3 |
| 20260507180413 | 11 | 36 | 3.2 | 9.7 | 0.00 | 0.28 | 0.18 | 88 | 1009.3 |
| 20260507175913 | 11 | 11 | 3.2 | 9.7 | 0.00 | 0.28 | 0.15 | 89 | 1009.4 |
| 20260507175413 | 11 | 307 | 3.2 | 6.4 | 0.00 | 0.28 | 0.15 | 86 | 1009.2 |
| 20260507174913 | 11 | 130 | 3.2 | 6.4 | 0.00 | 0.28 | 0.15 | 85 | 1009.2 |
| 20260507174413 | 11 | 45 | 3.2 | 8.0 | 0.00 | 0.28 | 0.15 | 86 | 1009.3 |
| 20260507173913 | 11 | 319 | 3.2 | 8.0 | 0.00 | 0.28 | 0.15 | 85 | 1009.5 |
| 20260507173413 | 11 | 1 | 3.2 | 8.0 | 0.00 | 0.28 | 0.15 | 87 | 1009.5 |
| 20260507172913 | 11 | 8 | 1.6 | 6.4 | 0.00 | 0.28 | 0.15 | 87 | 1009.4 |
| 20260507172414 | 11 | 98 | 1.6 | 6.4 | 0.00 | 0.28 | 0.15 | 87 | 1009.6 |
| 20260507171914 | 11 | 279 | 1.6 | 6.4 | 0.00 | 0.28 | 0.15 | 85 | 1009.8 |
| 20260507171409 | 11 | 87 | 1.6 | 6.4 | 0.00 | 0.28 | 0.15 | 89 | 1009.7 |
| 20260507170908 | 11 | 138 | 1.6 | 6.4 | 0.00 | 0.28 | 0.15 | 87 | 1009.8 |
| 20260507170408 | 11 | 159 | 1.6 | 6.4 | 0.00 | 0.28 | 0.15 | 87 | 1009.7 |
| 20260507165908 | 11 | 304 | 1.6 | 4.8 | 0.00 | 0.25 | 0.15 | 86 | 1010.1 |
| 20260507165408 | 11 | 0 | 1.6 | 4.8 | 0.00 | 0.25 | 0.15 | 85 | 1010.3 |
| 20260507164904 | 11 | 351 | 1.6 | 8.0 | 0.00 | 0.25 | 0.15 | 87 | 1010.2 |
| 20260507164404 | 11 | 311 | 1.6 | 8.0 | 0.00 | 0.25 | 0.15 | 88 | 1010.2 |
| 20260507163902 | 11 | 5 | 1.6 | 6.4 | 0.00 | 0.25 | 0.15 | 89 | 1010.1 |
| 20260507163402 | 11 | 355 | 1.6 | 6.4 | 0.00 | 0.25 | 0.15 | 90 | 1010.3 |
| 20260507162902 | 11 | 32 | 1.6 | 6.4 | 0.00 | 0.25 | 0.15 | 89 | 1010.4 |
| 20260507162402 | 11 | 107 | 1.6 | 3.2 | 0.00 | 0.25 | 0.15 | 90 | 1010.6 |
| 20260507161903 | 11 | 6 | 1.6 | 4.8 | 0.00 | 0.25 | 0.15 | 89 | 1010.7 |
| 20260507161402 | 11 | 332 | 1.6 | 4.8 | 0.00 | 0.25 | 0.15 | 88 | 1010.9 |
| 20260507160902 | 11 | 170 | 1.6 | 4.8 | 0.00 | 0.25 | 0.15 | 88 | 1010.6 |
| 20260507160403 | 11 | 0 | 3.2 | 8.0 | 0.00 | 0.25 | 0.15 | 89 | 1010.6 |
| 20260507155903 | 11 | 315 | 3.2 | 8.0 | 0.00 | 0.25 | 0.15 | 90 | 1010.7 |
| 20260507155403 | 11 | 317 | 1.6 | 4.8 | 0.03 | 0.25 | 0.15 | 89 | 1010.6 |
| 20260507154858 | 11 | 332 | 3.2 | 6.4 | 0.03 | 0.25 | 0.15 | 91 | 1010.7 |
| 20260507154359 | 10 | 54 | 1.6 | 6.4 | 0.03 | 0.25 | 0.15 | 92 | 1010.6 |
| 20260507153903 | 10 | 121 | 1.6 | 6.4 | 0.03 | 0.25 | 0.15 | 92 | 1010.8 |
| 20260507153401 | 10 | 0 | 1.6 | 4.8 | 0.03 | 0.25 | 0.15 | 92 | 1010.9 |
| 20260507152858 | 10 | 0 | 1.6 | 4.8 | 0.05 | 0.25 | 0.15 | 92 | 1010.9 |
| 20260507152357 | 10 | 0 | 1.6 | 6.4 | 0.05 | 0.25 | 0.15 | 92 | 1011.0 |
| 20260507151853 | 10 | 139 | 1.6 | 6.4 | 0.05 | 0.25 | 0.15 | 92 | 1011.1 |
| 20260507151353 | 10 | 10 | 1.6 | 4.8 | 0.05 | 0.25 | 0.15 | 91 | 1011.1 |
| 20260507151116 | 10 | 170 | 1.6 | 4.8 | 0.05 | 0.25 | 0.15 | 92 | 1011.2 |
| 20260507150353 | 10 | 132 | 1.6 | 4.8 | 0.05 | 0.25 | 0.15 | 92 | 1010.8 |
| 20260507150117 | 10 | 64 | 3.2 | 8.0 | 0.05 | 0.25 | 0.15 | 91 | 1010.9 |
| 20260507145353 | 10 | 54 | 3.2 | 8.0 | 0.05 | 0.23 | 0.13 | 90 | 1011.3 |
| 20260507144854 | 10 | 137 | 1.6 | 6.4 | 0.03 | 0.23 | 0.13 | 92 | 1011.1 |
| 20260507144613 | 10 | 0 | 1.6 | 6.4 | 0.03 | 0.23 | 0.13 | 91 | 1010.9 |
| 20260507143853 | 10 | 0 | 1.6 | 8.0 | 0.03 | 0.23 | 0.13 | 90 | 1010.9 |
| 20260507143352 | 10 | 60 | 1.6 | 8.0 | 0.03 | 0.23 | 0.13 | 90 | 1010.9 |
| 20260507142848 | 10 | 35 | 3.2 | 9.7 | 0.00 | 0.20 | 0.10 | 89 | 1011.1 |
| 20260507142348 | 10 | 92 | 3.2 | 9.7 | 0.00 | 0.20 | 0.10 | 90 | 1011.1 |
| 20260507141847 | 11 | 57 | 1.6 | 4.8 | 0.00 | 0.20 | 0.10 | 90 | 1011.1 |
| 20260507141347 | 11 | 0 | 1.6 | 4.8 | 0.00 | 0.20 | 0.10 | 89 | 1011.2 |
| 20260507140846 | 11 | 5 | 1.6 | 6.4 | 0.00 | 0.20 | 0.10 | 88 | 1011.3 |
| 20260507140346 | 11 | 353 | 1.6 | 6.4 | 0.00 | 0.20 | 0.10 | 88 | 1011.6 |
| 20260507135847 | 11 | 151 | 1.6 | 6.4 | 0.00 | 0.20 | 0.10 | 87 | 1011.6 |
| 20260507135613 | 11 | 0 | 3.2 | 8.0 | 0.00 | 0.20 | 0.10 | 86 | 1011.5 |
| 20260507135108 | 11 | 34 | 1.6 | 8.0 | 0.00 | 0.23 | 0.10 | 85 | 1011.3 |
| 20260507134347 | 11 | 26 | 3.2 | 6.4 | 0.00 | 0.23 | 0.10 | 85 | 1011.6 |
| 20260507133343 | 11 | 25 | 1.6 | 6.4 | 0.00 | 0.23 | 0.10 | 85 | 1011.3 |
| 20260507132841 | 11 | 328 | 1.6 | 6.4 | 0.00 | 0.23 | 0.10 | 85 | 1011.5 |
| 20260507132341 | 11 | 3 | 1.6 | 6.4 | 0.00 | 0.23 | 0.10 | 84 | 1011.5 |
| 20260507131841 | 11 | 3 | 3.2 | 6.4 | 0.00 | 0.23 | 0.10 | 85 | 1011.6 |
| 20260507131341 | 11 | 16 | 3.2 | 8.0 | 0.00 | 0.23 | 0.10 | 85 | 1011.5 |
| 20260507131101 | 11 | 0 | 4.8 | 11.3 | 0.00 | 0.25 | 0.10 | 85 | 1011.5 |
| 20260507130341 | 11 | 327 | 3.2 | 11.3 | 0.00 | 0.25 | 0.10 | 85 | 1011.3 |
| 20260507125840 | 11 | 0 | 3.2 | 9.7 | 0.00 | 0.25 | 0.10 | 86 | 1011.5 |
| 20260507125337 | 11 | 9 | 3.2 | 9.7 | 0.00 | 0.25 | 0.10 | 86 | 1011.5 |
| 20260507124837 | 11 | 17 | 3.2 | 9.7 | 0.00 | 0.25 | 0.10 | 86 | 1011.5 |
| 20260507124337 | 11 | 11 | 3.2 | 9.7 | 0.00 | 0.28 | 0.10 | 86 | 1011.3 |
| 20260507123837 | 11 | 351 | 3.2 | 8.0 | 0.00 | 0.28 | 0.10 | 86 | 1011.3 |
| 20260507123337 | 11 | 340 | 3.2 | 6.4 | 0.00 | 0.28 | 0.10 | 87 | 1011.2 |
| 20260507122837 | 11 | 357 | 3.2 | 4.8 | 0.00 | 0.28 | 0.10 | 88 | 1011.1 |
| 20260507122338 | 11 | 353 | 3.2 | 6.4 | 0.00 | 0.28 | 0.10 | 88 | 1011.1 |
| 20260507121836 | 11 | 335 | 3.2 | 6.4 | 0.00 | 0.33 | 0.10 | 88 | 1011.2 |
| 20260507120832 | 11 | 332 | 3.2 | 9.7 | 0.00 | 0.33 | 0.10 | 89 | 1011.3 |
| 20260507115832 | 11 | 341 | 3.2 | 6.4 | 0.00 | 0.33 | 0.10 | 90 | 1011.2 |
| 20260507115332 | 11 | 355 | 3.2 | 9.7 | 0.00 | 0.36 | 0.10 | 90 | 1011.2 |
| 20260507114832 | 11 | 326 | 3.2 | 9.7 | 0.00 | 0.38 | 0.10 | 90 | 1011.0 |
| 20260507114332 | 11 | 18 | 3.2 | 6.4 | 0.00 | 0.38 | 0.10 | 90 | 1011.2 |
| 20260507113832 | 11 | 12 | 1.6 | 6.4 | 0.00 | 0.38 | 0.10 | 91 | 1011.3 |
| 20260507113332 | 11 | 322 | 1.6 | 6.4 | 0.00 | 0.38 | 0.10 | 92 | 1011.2 |
| 20260507112831 | 11 | 0 | 3.2 | 8.0 | 0.00 | 0.38 | 0.10 | 92 | 1011.1 |
| 20260507112332 | 11 | 341 | 3.2 | 9.7 | 0.00 | 0.38 | 0.10 | 93 | 1010.9 |
| 20260507111835 | 11 | 3 | 3.2 | 9.7 | 0.00 | 0.38 | 0.10 | 93 | 1010.9 |
| 20260507111332 | 11 | 350 | 3.2 | 9.7 | 0.00 | 0.41 | 0.10 | 94 | 1010.9 |
| 20260507110832 | 11 | 8 | 3.2 | 8.0 | 0.00 | 0.43 | 0.10 | 94 | 1010.9 |
| 20260507110332 | 11 | 107 | 3.2 | 8.0 | 0.00 | 0.43 | 0.10 | 94 | 1010.9 |
| 20260507105832 | 11 | 342 | 3.2 | 9.7 | 0.00 | 0.43 | 0.10 | 94 | 1010.8 |
| 20260507105334 | 11 | 330 | 3.2 | 9.7 | 0.00 | 0.43 | 0.10 | 94 | 1010.5 |
| 20260507104831 | 11 | 5 | 3.2 | 9.7 | 0.00 | 0.43 | 0.10 | 95 | 1010.6 |
| 20260507104333 | 11 | 329 | 3.2 | 9.7 | 0.00 | 0.43 | 0.10 | 94 | 1010.5 |
| 20260507103831 | 11 | 349 | 3.2 | 9.7 | 0.00 | 0.43 | 0.10 | 94 | 1010.4 |
| 20260507103557 | 11 | 6 | 4.8 | 14.5 | 0.00 | 0.46 | 0.10 | 95 | 1010.4 |
| 20260507103052 | 11 | 73 | 6.4 | 14.5 | 0.00 | 0.46 | 0.10 | 95 | 1010.3 |
| 20260507102556 | 11 | 60 | 6.4 | 14.5 | 0.00 | 0.46 | 0.10 | 95 | 1010.4 |
| 20260507101831 | 11 | 346 | 4.8 | 9.7 | 0.00 | 0.46 | 0.10 | 95 | 1010.4 |
| 20260507101605 | 11 | 17 | 4.8 | 9.7 | 0.00 | 0.46 | 0.10 | 95 | 1010.2 |
| 20260507100831 | 11 | 0 | 3.2 | 9.7 | 0.00 | 0.46 | 0.10 | 95 | 1010.3 |
| 20260507100554 | 11 | 46 | 1.6 | 9.7 | 0.00 | 0.46 | 0.10 | 95 | 1010.4 |
| 20260507095832 | 11 | 0 | 1.6 | 8.0 | 0.00 | 0.46 | 0.10 | 95 | 1010.3 |
| 20260507095327 | 11 | 345 | 4.8 | 9.7 | 0.00 | 0.46 | 0.10 | 95 | 1010.3 |
| 20260507094828 | 11 | 16 | 3.2 | 9.7 | 0.00 | 0.46 | 0.10 | 94 | 1010.3 |
| 20260507094328 | 11 | 351 | 3.2 | 8.0 | 0.00 | 0.46 | 0.10 | 95 | 1010.4 |
| 20260507094050 | 11 | 2 | 3.2 | 8.0 | 0.00 | 0.46 | 0.10 | 95 | 1010.3 |
| 20260507093327 | 11 | 14 | 3.2 | 8.0 | 0.00 | 0.46 | 0.10 | 96 | 1010.3 |
| 20260507092826 | 11 | 0 | 3.2 | 8.0 | 0.00 | 0.46 | 0.10 | 96 | 1010.4 |
| 20260507092323 | 11 | 347 | 3.2 | 9.7 | 0.00 | 0.46 | 0.10 | 96 | 1010.1 |
| 20260507091821 | 12 | 340 | 3.2 | 9.7 | 0.00 | 0.46 | 0.10 | 96 | 1010.0 |
| 20260507091322 | 12 | 78 | 3.2 | 9.7 | 0.00 | 0.46 | 0.10 | 96 | 1010.2 |
| 20260507090323 | 12 | 0 | 3.2 | 12.9 | 0.00 | 0.46 | 0.10 | 96 | 1010.3 |
| 20260507085821 | 12 | 0 | 3.2 | 12.9 | 0.00 | 0.46 | 0.10 | 96 | 1010.3 |
| 20260507085321 | 12 | 350 | 4.8 | 12.9 | 0.00 | 0.46 | 0.10 | 96 | 1010.3 |
| 20260507084822 | 12 | 103 | 6.4 | 12.9 | 0.00 | 0.46 | 0.10 | 96 | 1010.2 |
| 20260507084323 | 12 | 19 | 6.4 | 12.9 | 0.00 | 0.46 | 0.10 | 96 | 1010.1 |
| 20260507083823 | 12 | 10 | 4.8 | 14.5 | 0.00 | 0.46 | 0.10 | 97 | 1009.9 |
| 20260507082821 | 12 | 64 | 4.8 | 12.9 | 0.00 | 0.46 | 0.10 | 97 | 1009.7 |
| 20260507082321 | 12 | 55 | 4.8 | 12.9 | 0.00 | 0.46 | 0.10 | 97 | 1009.8 |
| 20260507081821 | 12 | 28 | 4.8 | 12.9 | 0.00 | 0.46 | 0.10 | 97 | 1009.8 |
| 20260507081322 | 12 | 48 | 6.4 | 14.5 | 0.00 | 0.46 | 0.10 | 96 | 1009.8 |
| 20260507080821 | 13 | 359 | 4.8 | 14.5 | 0.00 | 0.46 | 0.10 | 96 | 1009.9 |
| 20260507080317 | 13 | 313 | 6.4 | 16.1 | 0.00 | 0.46 | 0.10 | 96 | 1010.0 |
| 20260507075817 | 13 | 331 | 6.4 | 16.1 | 0.00 | 0.46 | 0.10 | 95 | 1009.9 |
| 20260507075317 | 15 | 13 | 6.4 | 12.9 | 0.00 | 0.46 | 0.10 | 94 | 1009.7 |
| 20260507074817 | 15 | 37 | 4.8 | 12.9 | 0.00 | 0.46 | 0.10 | 91 | 1009.7 |
| 20260507074317 | 16 | 110 | 3.2 | 8.0 | 0.00 | 0.46 | 0.10 | 83 | 1009.6 |
| 20260507073817 | 16 | 342 | 4.8 | 11.3 | 0.00 | 0.46 | 0.10 | 83 | 1009.3 |
| 20260507073318 | 16 | 291 | 6.4 | 11.3 | 0.00 | 0.46 | 0.10 | 83 | 1009.5 |
| 20260507073036 | 16 | 284 | 6.4 | 11.3 | 0.00 | 0.46 | 0.10 | 84 | 1009.4 |
| 20260507072317 | 16 | 282 | 6.4 | 9.7 | 0.00 | 0.46 | 0.10 | 84 | 1009.5 |
| 20260507071815 | 16 | 299 | 4.8 | 11.3 | 0.00 | 0.46 | 0.10 | 84 | 1009.5 |
| 20260507071313 | 16 | 300 | 4.8 | 11.3 | 0.00 | 0.46 | 0.10 | 84 | 1009.5 |
| 20260507070813 | 16 | 291 | 4.8 | 9.7 | 0.00 | 0.46 | 0.10 | 84 | 1009.3 |
| 20260507070313 | 16 | 337 | 4.8 | 9.7 | 0.00 | 0.46 | 0.10 | 83 | 1009.0 |
| 20260507065813 | 16 | 279 | 6.4 | 12.9 | 0.00 | 0.46 | 0.10 | 83 | 1009.4 |
| 20260507065313 | 16 | 298 | 6.4 | 12.9 | 0.00 | 0.46 | 0.10 | 82 | 1009.3 |
| 20260507064811 | 16 | 290 | 4.8 | 12.9 | 0.00 | 0.46 | 0.10 | 83 | 1009.3 |
| 20260507064310 | 16 | 312 | 4.8 | 9.7 | 0.00 | 0.46 | 0.10 | 84 | 1009.3 |
| 20260507063812 | 16 | 292 | 4.8 | 9.7 | 0.00 | 0.46 | 0.10 | 84 | 1009.2 |
| 20260507063312 | 16 | 304 | 4.8 | 12.9 | 0.00 | 0.46 | 0.10 | 85 | 1009.2 |
| 20260507062811 | 16 | 302 | 6.4 | 17.7 | 0.00 | 0.46 | 0.10 | 85 | 1008.9 |
| 20260507062311 | 16 | 260 | 6.4 | 17.7 | 0.00 | 0.46 | 0.10 | 84 | 1009.3 |
| 20260507061811 | 16 | 305 | 6.4 | 14.5 | 0.00 | 0.46 | 0.10 | 86 | 1009.4 |
| 20260507061311 | 16 | 294 | 6.4 | 16.1 | 0.00 | 0.46 | 0.10 | 86 | 1009.6 |
| 20260507061036 | 16 | 296 | 6.4 | 16.1 | 0.00 | 0.46 | 0.10 | 87 | 1009.6 |
| 20260507060544 | 16 | 284 | 4.8 | 14.5 | 0.00 | 0.46 | 0.10 | 88 | 1009.7 |
| 20260507055812 | 16 | 283 | 4.8 | 14.5 | 0.00 | 0.46 | 0.10 | 90 | 1009.7 |
| 20260507055312 | 16 | 310 | 4.8 | 14.5 | 0.00 | 0.46 | 0.10 | 94 | 1009.7 |
| 20260507055037 | 16 | 266 | 4.8 | 9.7 | 0.00 | 0.46 | 0.10 | 94 | 1009.7 |
| 20260507054545 | 16 | 0 | 4.8 | 9.7 | 0.00 | 0.46 | 0.10 | 95 | 1009.8 |
| 20260507053808 | 16 | 334 | 3.2 | 9.7 | 0.00 | 0.46 | 0.10 | 97 | 1009.7 |
| 20260507053308 | 16 | 289 | 3.2 | 11.3 | 0.00 | 0.46 | 0.10 | 98 | 1009.8 |
| 20260507052531 | 16 | 164 | 1.6 | 4.8 | 0.03 | 0.46 | 0.10 | 99 | 1009.7 |
| 20260507052024 | 16 | 36 | 1.6 | 6.4 | 0.03 | 0.46 | 0.10 | 99 | 1009.7 |
| 20260507051307 | 16 | 51 | 1.6 | 6.4 | 0.03 | 0.46 | 0.10 | 98 | 1009.5 |
| 20260507050806 | 16 | 0 | 1.6 | 6.4 | 0.03 | 0.46 | 0.10 | 98 | 1009.2 |
| 20260507050306 | 16 | 286 | 3.2 | 6.4 | 0.08 | 0.46 | 0.10 | 98 | 1009.0 |
| 20260507050030 | 16 | 302 | 3.2 | 6.4 | 0.10 | 0.46 | 0.10 | 98 | 1008.7 |
| 20260507045307 | 16 | 306 | 1.6 | 4.8 | 0.10 | 0.46 | 0.10 | 98 | 1008.4 |
| 20260507044804 | 16 | 236 | 0.0 | 4.8 | 0.10 | 0.46 | 0.10 | 98 | 1008.2 |
| 20260507044302 | 16 | 0 | 0.0 | 4.8 | 0.10 | 0.46 | 0.10 | 97 | 1008.0 |
| 20260507043802 | 17 | 0 | 1.6 | 6.4 | 0.10 | 0.46 | 0.10 | 97 | 1008.2 |
| 20260507043301 | 17 | 297 | 3.2 | 8.0 | 0.10 | 0.43 | 0.08 | 97 | 1008.5 |
| 20260507042300 | 17 | 280 | 4.8 | 11.3 | 0.10 | 0.43 | 0.08 | 97 | 1009.3 |
| 20260507041805 | 17 | 281 | 3.2 | 11.3 | 0.10 | 0.43 | 0.08 | 97 | 1009.2 |
| 20260507041302 | 17 | 314 | 1.6 | 8.0 | 0.10 | 0.43 | 0.08 | 96 | 1009.3 |
| 20260507041021 | 17 | 0 | 1.6 | 6.4 | 0.10 | 0.43 | 0.05 | 96 | 1009.0 |
| 20260507040301 | 17 | 232 | 3.2 | 6.4 | 0.08 | 0.38 | 0.03 | 95 | 1009.3 |
| 20260507035801 | 17 | 18 | 3.2 | 9.7 | 0.08 | 0.36 | 0.36 | 95 | 1009.3 |
| 20260507035302 | 17 | 301 | 4.8 | 12.9 | 0.08 | 0.36 | 0.36 | 94 | 1009.4 |
| 20260507034801 | 17 | 294 | 6.4 | 12.9 | 0.08 | 0.36 | 0.36 | 94 | 1009.3 |
| 20260507034301 | 17 | 285 | 4.8 | 9.7 | 0.05 | 0.36 | 0.36 | 94 | 1009.3 |
| 20260507033802 | 17 | 284 | 4.8 | 9.7 | 0.08 | 0.36 | 0.36 | 93 | 1009.2 |
| 20260507033301 | 17 | 285 | 3.2 | 9.7 | 0.10 | 0.36 | 0.36 | 93 | 1009.4 |
| 20260507032757 | 17 | 305 | 4.8 | 12.9 | 0.10 | 0.33 | 0.33 | 93 | 1009.5 |
| 20260507032257 | 18 | 304 | 6.4 | 12.9 | 0.10 | 0.33 | 0.33 | 92 | 1009.6 |
| 20260507032021 | 18 | 281 | 6.4 | 12.9 | 0.08 | 0.33 | 0.33 | 91 | 1009.9 |
| 20260507031257 | 18 | 299 | 4.8 | 12.9 | 0.08 | 0.33 | 0.33 | 90 | 1009.8 |
| 20260507030756 | 18 | 304 | 4.8 | 12.9 | 0.08 | 0.33 | 0.33 | 89 | 1009.6 |
| 20260507030256 | 18 | 247 | 4.8 | 11.3 | 0.05 | 0.30 | 0.30 | 88 | 1009.6 |
| 20260507025756 | 18 | 347 | 4.8 | 14.5 | 0.05 | 0.28 | 0.28 | 87 | 1009.7 |
| 20260507025256 | 18 | 325 | 3.2 | 14.5 | 0.05 | 0.28 | 0.28 | 87 | 1009.6 |
| 20260507024756 | 18 | 89 | 3.2 | 8.0 | 0.05 | 0.28 | 0.28 | 87 | 1009.0 |
| 20260507024257 | 18 | 329 | 3.2 | 8.0 | 0.05 | 0.28 | 0.28 | 85 | 1009.4 |
| 20260507023756 | 19 | 288 | 3.2 | 9.7 | 0.03 | 0.28 | 0.28 | 83 | 1009.4 |
| 20260507023256 | 19 | 271 | 3.2 | 9.7 | 0.00 | 0.25 | 0.25 | 83 | 1009.3 |
| 20260507022756 | 19 | 295 | 3.2 | 8.0 | 0.00 | 0.25 | 0.25 | 82 | 1009.3 |
| 20260507022256 | 19 | 92 | 3.2 | 8.0 | 0.00 | 0.25 | 0.25 | 82 | 1009.3 |
| 20260507022022 | 19 | 93 | 3.2 | 8.0 | 0.00 | 0.25 | 0.25 | 81 | 1009.2 |
| 20260507021256 | 18 | 0 | 1.6 | 4.8 | 0.00 | 0.25 | 0.25 | 82 | 1009.0 |
| 20260507021022 | 18 | 0 | 1.6 | 4.8 | 0.00 | 0.25 | 0.25 | 82 | 1008.8 |
| 20260507020252 | 18 | 192 | 1.6 | 4.8 | 0.00 | 0.25 | 0.25 | 82 | 1008.8 |
| 20260507015753 | 19 | 262 | 1.6 | 4.8 | 0.00 | 0.25 | 0.25 | 82 | 1008.6 |
| 20260507015252 | 19 | 0 | 1.6 | 4.8 | 0.00 | 0.25 | 0.25 | 82 | 1008.6 |
| 20260507014753 | 19 | 294 | 0.0 | 3.2 | 0.00 | 0.25 | 0.25 | 81 | 1008.4 |
| 20260507014251 | 19 | 1 | 0.0 | 4.8 | 0.00 | 0.25 | 0.25 | 80 | 1008.0 |
| 20260507013752 | 19 | 0 | 1.6 | 4.8 | 0.00 | 0.25 | 0.25 | 80 | 1008.2 |
| 20260507013251 | 20 | 148 | 0.0 | 3.2 | 0.00 | 0.25 | 0.25 | 80 | 1008.4 |
| 20260507012251 | 20 | 301 | 1.6 | 4.8 | 0.00 | 0.25 | 0.25 | 79 | 1008.8 |
| 20260507012015 | 20 | 204 | 1.6 | 6.4 | 0.00 | 0.25 | 0.25 | 79 | 1008.6 |
| 20260507011251 | 20 | 240 | 1.6 | 6.4 | 0.00 | 0.25 | 0.25 | 80 | 1008.7 |
| 20260507010751 | 20 | 0 | 0.0 | 3.2 | 0.00 | 0.25 | 0.25 | 80 | 1008.8 |
| 20260507010251 | 20 | 0 | 0.0 | 4.8 | 0.00 | 0.25 | 0.25 | 79 | 1008.8 |
| 20260507010009 | 20 | 229 | 1.6 | 4.8 | 0.00 | 0.25 | 0.25 | 79 | 1008.9 |
| 20260507005252 | 20 | 65 | 3.2 | 8.0 | 0.00 | 0.25 | 0.25 | 79 | 1009.0 |
| 20260507004752 | 20 | 308 | 3.2 | 8.0 | 0.00 | 0.25 | 0.25 | 78 | 1009.0 |
| 20260507004252 | 20 | 277 | 3.2 | 6.4 | 0.00 | 0.25 | 0.25 | 78 | 1008.9 |
| 20260507003752 | 20 | 262 | 3.2 | 8.0 | 0.00 | 0.25 | 0.25 | 78 | 1008.8 |
| 20260507003252 | 20 | 233 | 3.2 | 8.0 | 0.00 | 0.25 | 0.25 | 78 | 1008.9 |
| 20260507002753 | 20 | 308 | 1.6 | 8.0 | 0.00 | 0.25 | 0.25 | 78 | 1008.9 |